When you browse on this site, cookies collect data to enhance your experience and personalize the content and advertising you see.
Visit our Privacy Policy to learn more. By continuing to use the site, you agree to this use of cookies and data.
  • In Sweden
  • List of Countries
  • For 7 days
  • Water Temperature
  • Satellite Maps
  • Weather Map
  • Weather Widgets
  • user-avatar
    Login

    Hourly Weather Bingley

    Today, 19 July, Friday

    Time Temperature Precipitation Wind Pressure Humidity
    00:00 +13°C° 0 mm 2 mps 740 mmHg 82%
    01:00 +13°C° 0 mm 2 mps 740 mmHg 84%
    02:00 +13°C° 0 mm 2 mps 740 mmHg 85%
    03:00 +13°C° 0 mm 2 mps 740 mmHg 87%
    04:00 +13°C° 0 mm 2 mps 740 mmHg 86%
    05:00 +14°C° 0 mm 2 mps 740 mmHg 86%
    06:00 +14°C° 0 mm 2 mps 740 mmHg 85%
    07:00 +15°C° 0 mm 2 mps 740 mmHg 81%
    08:00 +16°C° 0 mm 3 mps 740 mmHg 76%
    09:00 +18°C° 0 mm 3 mps 739 mmHg 71%
    10:00 +17°C° 0.3 mm 4 mps 739 mmHg 74%
    11:00 +15°C° 0.3 mm 4 mps 738 mmHg 78%
    12:00 +15°C° 0.3 mm 4 mps 738 mmHg 82%
    13:00 +15°C° 1.2 mm 4 mps 737 mmHg 85%
    14:00 +17°C° 1.2 mm 4 mps 737 mmHg 88%
    15:00 +17°C° 1.2 mm 4 mps 737 mmHg 90%
    16:00 +18°C° 0.5 mm 4 mps 736 mmHg 88%
    17:00 +19°C° 0.5 mm 4 mps 736 mmHg 85%
    18:00 +20°C° 0.5 mm 4 mps 736 mmHg 83%
    19:00 +18°C° 0.2 mm 4 mps 736 mmHg 84%
    20:00 +17°C° 0.2 mm 4 mps 736 mmHg 85%
    21:00 +15°C° 0.2 mm 4 mps 736 mmHg 86%
    22:00 +15°C° 0 mm 4 mps 736 mmHg 86%
    23:00 +15°C° 0 mm 4 mps 736 mmHg 87%

    Tomorrow, 20 July, Saturday

    Time Temperature Precipitation Wind Pressure Humidity
    00:00 +15°C° 0 mm 5 mps 735 mmHg 87%
    01:00 +15°C° 0 mm 5 mps 735 mmHg 88%
    02:00 +14°C° 0 mm 5 mps 735 mmHg 88%
    03:00 +14°C° 0 mm 5 mps 735 mmHg 89%
    04:00 +15°C° 0 mm 5 mps 735 mmHg 88%
    05:00 +15°C° 0 mm 5 mps 735 mmHg 87%
    06:00 +15°C° 0 mm 6 mps 735 mmHg 86%
    07:00 +15°C° 0.1 mm 6 mps 735 mmHg 86%
    08:00 +15°C° 0.1 mm 7 mps 735 mmHg 86%
    09:00 +15°C° 0.1 mm 8 mps 736 mmHg 87%
    10:00 +16°C° 0 mm 7 mps 736 mmHg 83%
    11:00 +16°C° 0 mm 7 mps 737 mmHg 79%
    12:00 +16°C° 0 mm 7 mps 737 mmHg 75%
    13:00 +17°C° 0 mm 7 mps 738 mmHg 72%
    14:00 +18°C° 0 mm 7 mps 738 mmHg 69%
    15:00 +18°C° 0 mm 7 mps 738 mmHg 66%
    16:00 +17°C° 0 mm 6 mps 739 mmHg 67%
    17:00 +17°C° 0 mm 6 mps 739 mmHg 69%
    18:00 +16°C° 0 mm 5 mps 740 mmHg 71%
    19:00 +15°C° 0 mm 4 mps 740 mmHg 76%
    20:00 +14°C° 0 mm 4 mps 741 mmHg 81%
    21:00 +12°C° 0 mm 3 mps 742 mmHg 86%
    22:00 +12°C° 0 mm 3 mps 742 mmHg 87%
    23:00 +12°C° 0 mm 3 mps 742 mmHg 88%

    Day after tomorrow, 21 July, Sunday

    Time Temperature Precipitation Wind Pressure Humidity
    00:00 +12°C° 0 mm 3 mps 743 mmHg 89%
    01:00 +12°C° 0 mm 2 mps 743 mmHg 89%
    02:00 +12°C° 0 mm 2 mps 743 mmHg 88%
    03:00 +12°C° 0 mm 2 mps 743 mmHg 88%
    04:00 +13°C° 0 mm 2 mps 744 mmHg 87%
    05:00 +13°C° 0 mm 2 mps 744 mmHg 87%
    06:00 +14°C° 0 mm 2 mps 745 mmHg 86%
    07:00 +15°C° 0 mm 2 mps 745 mmHg 82%
    08:00 +17°C° 0 mm 3 mps 745 mmHg 78%
    09:00 +18°C° 0 mm 3 mps 746 mmHg 74%
    10:00 +19°C° 0 mm 4 mps 746 mmHg 70%
    11:00 +20°C° 0 mm 4 mps 746 mmHg 66%
    12:00 +21°C° 0 mm 5 mps 746 mmHg 62%
    13:00 +21°C° 0 mm 5 mps 747 mmHg 62%
    14:00 +21°C° 0 mm 5 mps 747 mmHg 62%
    15:00 +21°C° 0 mm 5 mps 747 mmHg 62%
    16:00 +20°C° 0 mm 5 mps 747 mmHg 64%
    17:00 +20°C° 0 mm 4 mps 747 mmHg 67%
    18:00 +20°C° 0 mm 3 mps 747 mmHg 69%
    19:00 +19°C° 0 mm 3 mps 747 mmHg 72%
    20:00 +18°C° 0 mm 3 mps 747 mmHg 75%
    21:00 +17°C° 0 mm 3 mps 748 mmHg 78%
    22:00 +17°C° 0 mm 3 mps 747 mmHg 80%
    23:00 +16°C° 0 mm 3 mps 747 mmHg 83%

    22 July, Monday

    Time Temperature Precipitation Wind Pressure Humidity
    00:00 +16°C° 0 mm 3 mps 747 mmHg 85%
    01:00 +15°C° 0 mm 4 mps 747 mmHg 83%
    02:00 +15°C° 0 mm 4 mps 747 mmHg 82%
    03:00 +15°C° 0 mm 4 mps 747 mmHg 80%
    04:00 +15°C° 0 mm 4 mps 747 mmHg 80%
    05:00 +15°C° 0 mm 4 mps 747 mmHg 80%
    06:00 +17°C° 0 mm 4 mps 747 mmHg 79%
    07:00 +18°C° 0 mm 4 mps 747 mmHg 76%
    08:00 +19°C° 0 mm 4 mps 748 mmHg 72%
    09:00 +21°C° 0 mm 5 mps 748 mmHg 68%
    10:00 +22°C° 0 mm 5 mps 748 mmHg 66%
    11:00 +23°C° 0 mm 5 mps 748 mmHg 64%
    12:00 +25°C° 0 mm 5 mps 748 mmHg 62%
    13:00 +25°C° 0 mm 5 mps 748 mmHg 62%
    14:00 +26°C° 0 mm 5 mps 748 mmHg 61%
    15:00 +26°C° 0 mm 5 mps 748 mmHg 60%
    16:00 +26°C° 0 mm 5 mps 748 mmHg 63%
    17:00 +25°C° 0 mm 4 mps 748 mmHg 66%
    18:00 +25°C° 0 mm 4 mps 748 mmHg 69%
    19:00 +22°C° 0 mm 3 mps 748 mmHg 73%
    20:00 +21°C° 0 mm 3 mps 748 mmHg 76%
    21:00 +19°C° 0 mm 3 mps 748 mmHg 80%
    22:00 +19°C° 0 mm 2 mps 748 mmHg 82%
    23:00 +18°C° 0 mm 2 mps 748 mmHg 84%

    23 July, Tuesday

    Time Temperature Precipitation Wind Pressure Humidity
    00:00 +17°C° 0 mm 2 mps 748 mmHg 86%
    01:00 +17°C° 0 mm 2 mps 748 mmHg 87%
    02:00 +17°C° 0 mm 2 mps 747 mmHg 87%
    03:00 +16°C° 0 mm 2 mps 747 mmHg 87%
    04:00 +18°C° 0 mm 1 mps 747 mmHg 86%
    05:00 +18°C° 0 mm 1 mps 747 mmHg 84%
    06:00 +19°C° 0 mm 1 mps 747 mmHg 82%
    07:00 +20°C° 0 mm 2 mps 746 mmHg 75%
    08:00 +23°C° 0 mm 2 mps 746 mmHg 67%
    09:00 +24°C° 0 mm 3 mps 746 mmHg 60%
    10:00 +26°C° 0 mm 3 mps 746 mmHg 58%
    11:00 +27°C° 0 mm 4 mps 746 mmHg 56%
    12:00 +28°C° 0 mm 5 mps 745 mmHg 54%
    13:00 +29°C° 0 mm 5 mps 745 mmHg 54%
    14:00 +29°C° 0 mm 5 mps 744 mmHg 54%
    15:00 +30°C° 0 mm 6 mps 744 mmHg 54%
    16:00 +29°C° 0 mm 5 mps 744 mmHg 58%
    17:00 +29°C° 0 mm 5 mps 743 mmHg 61%
    18:00 +29°C° 0 mm 4 mps 743 mmHg 64%
    19:00 +27°C° 0 mm 4 mps 743 mmHg 68%
    20:00 +26°C° 0 mm 3 mps 743 mmHg 71%
    21:00 +25°C° 0 mm 3 mps 743 mmHg 75%
    22:00 +24°C° 0.1 mm 3 mps 743 mmHg 77%
    23:00 +23°C° 0.1 mm 2 mps 743 mmHg 80%

    24 July, Wednesday

    Time Temperature Precipitation Wind Pressure Humidity
    00:00 +21°C° 0.1 mm 2 mps 743 mmHg 83%
    01:00 +21°C° 0.1 mm 2 mps 742 mmHg 84%
    02:00 +21°C° 0.1 mm 1 mps 742 mmHg 86%
    03:00 +21°C° 0.1 mm 1 mps 741 mmHg 87%
    04:00 +21°C° 0.6 mm 1 mps 741 mmHg 87%
    05:00 +22°C° 0.6 mm 1 mps 741 mmHg 87%
    06:00 +22°C° 0.6 mm 1 mps 740 mmHg 88%
    07:00 +23°C° 0.3 mm 1 mps 740 mmHg 84%
    08:00 +24°C° 0.3 mm 2 mps 740 mmHg 81%
    09:00 +25°C° 0.3 mm 2 mps 740 mmHg 78%
    10:00 +26°C° 0 mm 3 mps 740 mmHg 74%
    11:00 +27°C° 0 mm 3 mps 740 mmHg 70%
    12:00 +28°C° 0 mm 4 mps 740 mmHg 66%
    13:00 +27°C° 0.1 mm 3 mps 740 mmHg 67%
    14:00 +26°C° 0.1 mm 2 mps 740 mmHg 69%
    15:00 +26°C° 0.1 mm 1 mps 739 mmHg 70%
    16:00 +26°C° 0 mm 1 mps 739 mmHg 71%
    17:00 +25°C° 0 mm 2 mps 739 mmHg 72%
    18:00 +25°C° 0 mm 2 mps 739 mmHg 73%
    19:00 +24°C° 0.2 mm 2 mps 739 mmHg 76%
    20:00 +23°C° 0.2 mm 1 mps 739 mmHg 80%
    21:00 +22°C° 0.2 mm 1 mps 739 mmHg 84%
    22:00 +22°C° 1.4 mm 1 mps 739 mmHg 86%
    23:00 +21°C° 1.4 mm 1 mps 738 mmHg 89%
    Show more